TimeCDT,TemperatureF,Dew PointF,Humidity,Sea Level PressureIn,VisibilityMPH,Wind Direction,Wind SpeedMPH,Gust SpeedMPH,PrecipitationIn,Events,Conditions,WindDirDegrees,DateUTC
12:14 AM,28.4,24.8,86,29.99,10.0,WSW,5.8,-,N/A,,Clear,240,2014-03-20 05:14:00
12:34 AM,28.4,24.8,86,29.99,10.0,West,3.5,-,N/A,,Clear,260,2014-03-20 05:34:00
12:54 AM,28.4,26.6,93,29.99,10.0,West,5.8,-,N/A,,Clear,260,2014-03-20 05:54:00
1:13 AM,28.4,24.8,86,29.99,10.0,WSW,5.8,-,N/A,,Clear,250,2014-03-20 06:13:00
1:34 AM,28.4,24.8,86,29.99,10.0,West,5.8,-,N/A,,Clear,260,2014-03-20 06:34:00
1:54 AM,28.4,26.6,93,29.99,10.0,West,6.9,-,N/A,,Clear,260,2014-03-20 06:54:00
2:14 AM,28.4,26.6,93,29.99,10.0,West,5.8,-,N/A,,Clear,260,2014-03-20 07:14:00
2:34 AM,28.4,26.6,93,29.98,10.0,WSW,5.8,-,N/A,,Clear,250,2014-03-20 07:34:00
2:53 AM,26.6,24.8,93,29.98,10.0,WSW,5.8,-,N/A,,Clear,240,2014-03-20 07:53:00
3:14 AM,26.6,24.8,93,29.98,7.0,WSW,5.8,-,N/A,,Clear,250,2014-03-20 08:14:00
3:34 AM,26.6,24.8,93,29.98,7.0,WSW,5.8,-,N/A,,Clear,240,2014-03-20 08:34:00
3:53 AM,26.6,24.8,93,29.98,5.0,WSW,5.8,-,N/A,,Clear,240,2014-03-20 08:53:00
4:14 AM,26.6,24.8,93,29.98,5.0,SW,4.6,-,N/A,,Clear,230,2014-03-20 09:14:00
4:34 AM,26.6,24.8,93,29.98,7.0,WSW,3.5,-,N/A,,Clear,240,2014-03-20 09:34:00
4:53 AM,26.6,24.8,93,29.98,7.0,West,3.5,-,N/A,,Clear,260,2014-03-20 09:53:00
5:14 AM,24.8,24.8,100,29.98,7.0,WSW,4.6,-,N/A,,Clear,250,2014-03-20 10:14:00
5:34 AM,26.6,26.6,100,29.98,10.0,West,6.9,-,N/A,,Clear,260,2014-03-20 10:34:00
5:53 AM,26.6,26.6,100,29.98,10.0,West,4.6,-,N/A,,Clear,260,2014-03-20 10:53:00
6:14 AM,26.6,26.6,100,29.98,10.0,WSW,3.5,-,N/A,,Clear,250,2014-03-20 11:14:00
6:34 AM,26.6,24.8,93,29.98,10.0,West,4.6,-,N/A,,Clear,260,2014-03-20 11:34:00
6:53 AM,26.6,26.6,100,29.98,10.0,West,3.5,-,N/A,,Clear,260,2014-03-20 11:53:00
7:14 AM,24.8,24.8,100,29.98,10.0,West,3.5,-,N/A,,Clear,270,2014-03-20 12:14:00
7:33 AM,24.8,24.8,100,29.98,10.0,West,3.5,-,N/A,,Clear,270,2014-03-20 12:33:00
7:54 AM,26.6,24.8,93,29.98,7.0,Calm,Calm,-,N/A,,Clear,0,2014-03-20 12:54:00
8:14 AM,26.6,26.6,100,29.99,7.0,Calm,Calm,-,N/A,,Clear,0,2014-03-20 13:14:00
8:33 AM,28.4,28.4,100,29.98,5.0,Calm,Calm,-,N/A,,Mostly Cloudy,0,2014-03-20 13:33:00
8:54 AM,35.6,33.8,93,29.98,7.0,Calm,Calm,-,N/A,,Overcast,0,2014-03-20 13:54:00
9:14 AM,37.4,35.6,93,29.98,10.0,WSW,3.5,-,N/A,,Overcast,240,2014-03-20 14:14:00
9:33 AM,37.4,33.8,87,29.98,10.0,Calm,Calm,-,N/A,,Overcast,0,2014-03-20 14:33:00
9:54 AM,39.2,32.0,75,29.98,10.0,SSE,3.5,-,N/A,,Mostly Cloudy,160,2014-03-20 14:54:00
10:14 AM,39.2,32.0,75,29.98,10.0,SE,3.5,-,N/A,,Scattered Clouds,130,2014-03-20 15:14:00
10:33 AM,39.2,32.0,75,29.98,10.0,SSE,3.5,-,N/A,,Clear,160,2014-03-20 15:33:00
10:54 AM,41.0,33.8,76,29.98,10.0,SE,4.6,-,N/A,,Clear,140,2014-03-20 15:54:00
11:14 AM,41.0,33.8,76,29.97,10.0,SE,6.9,-,N/A,,Clear,140,2014-03-20 16:14:00
11:33 AM,42.8,33.8,70,29.97,10.0,SSE,5.8,-,N/A,,Clear,150,2014-03-20 16:33:00
11:54 AM,42.8,35.6,76,29.96,10.0,SE,6.9,-,N/A,,Clear,130,2014-03-20 16:54:00
12:14 PM,44.6,35.6,71,29.95,10.0,SSE,6.9,-,N/A,,Clear,150,2014-03-20 17:14:00
12:33 PM,44.6,35.6,71,29.95,10.0,SE,8.1,-,N/A,,Scattered Clouds,130,2014-03-20 17:33:00
12:54 PM,46.4,33.8,62,29.94,10.0,SSE,6.9,-,N/A,,Clear,150,2014-03-20 17:54:00
1:14 PM,46.4,33.8,62,29.93,10.0,SE,8.1,-,N/A,,Clear,140,2014-03-20 18:14:00
1:33 PM,46.4,35.6,66,29.93,10.0,South,8.1,-,N/A,,Clear,170,2014-03-20 18:33:00
1:54 PM,48.2,33.8,58,29.92,10.0,South,8.1,-,N/A,,Scattered Clouds,170,2014-03-20 18:54:00
2:14 PM,48.2,33.8,58,29.91,10.0,SSW,5.8,-,N/A,,Mostly Cloudy,210,2014-03-20 19:14:00
2:33 PM,48.2,33.8,58,29.90,10.0,SSW,8.1,-,N/A,,Overcast,200,2014-03-20 19:33:00
2:54 PM,50.0,33.8,54,29.90,10.0,SSW,6.9,-,N/A,,Mostly Cloudy,200,2014-03-20 19:54:00
3:14 PM,48.2,33.8,58,29.89,10.0,South,6.9,-,N/A,,Mostly Cloudy,190,2014-03-20 20:14:00
3:34 PM,48.2,35.6,62,29.89,10.0,SSW,10.4,16.1,N/A,,Overcast,200,2014-03-20 20:34:00
3:54 PM,48.2,35.6,62,29.88,10.0,SW,9.2,-,N/A,,Overcast,220,2014-03-20 20:54:00
4:13 PM,50.0,35.6,58,29.87,10.0,South,10.4,-,N/A,,Scattered Clouds,190,2014-03-20 21:13:00
4:34 PM,51.8,37.4,58,29.87,10.0,SW,10.4,-,N/A,,Clear,220,2014-03-20 21:34:00
4:54 PM,51.8,35.6,54,29.86,10.0,SSW,9.2,-,N/A,,Clear,200,2014-03-20 21:54:00
5:13 PM,51.8,35.6,54,29.86,10.0,South,9.2,-,N/A,,Clear,190,2014-03-20 22:13:00
5:34 PM,50.0,35.6,58,29.86,10.0,South,10.4,-,N/A,,Clear,180,2014-03-20 22:34:00
5:54 PM,50.0,35.6,58,29.86,10.0,South,6.9,-,N/A,,Clear,180,2014-03-20 22:54:00
6:13 PM,50.0,37.4,62,29.86,10.0,South,10.4,-,N/A,,Clear,170,2014-03-20 23:13:00
6:34 PM,48.2,37.4,66,29.85,10.0,South,9.2,-,N/A,,Clear,180,2014-03-20 23:34:00
6:54 PM,48.2,35.6,62,29.85,10.0,South,9.2,-,N/A,,Clear,180,2014-03-20 23:54:00
7:13 PM,46.4,35.6,66,29.84,10.0,South,9.2,-,N/A,,Clear,180,2014-03-21 00:13:00
7:34 PM,42.8,35.6,76,29.84,10.0,South,8.1,-,N/A,,Clear,170,2014-03-21 00:34:00
7:53 PM,39.2,35.6,87,29.84,10.0,South,9.2,-,N/A,,Clear,170,2014-03-21 00:53:00
8:14 PM,39.2,35.6,87,29.84,10.0,South,9.2,-,N/A,,Clear,170,2014-03-21 01:14:00
8:34 PM,39.2,35.6,87,29.84,10.0,South,8.1,-,N/A,,Clear,180,2014-03-21 01:34:00
8:54 PM,39.2,35.6,87,29.84,10.0,South,10.4,-,N/A,,Clear,180,2014-03-21 01:54:00
9:14 PM,37.4,35.6,93,29.84,10.0,South,10.4,-,N/A,,Clear,180,2014-03-21 02:14:00
9:34 PM,37.4,33.8,87,29.83,10.0,South,9.2,-,N/A,,Clear,180,2014-03-21 02:34:00
9:54 PM,37.4,33.8,87,29.82,10.0,South,10.4,-,N/A,,Clear,180,2014-03-21 02:54:00
10:14 PM,37.4,33.8,87,29.82,10.0,South,11.5,-,N/A,,Clear,180,2014-03-21 03:14:00
10:34 PM,37.4,33.8,87,29.81,10.0,South,13.8,-,N/A,,Clear,180,2014-03-21 03:34:00
10:54 PM,39.2,35.6,87,29.80,10.0,South,13.8,19.6,N/A,,Clear,180,2014-03-21 03:54:00
11:14 PM,39.2,33.8,81,29.78,10.0,South,15.0,-,N/A,,Clear,180,2014-03-21 04:14:00
11:34 PM,39.2,33.8,81,29.78,10.0,South,13.8,19.6,N/A,,Clear,180,2014-03-21 04:34:00
11:54 PM,39.2,33.8,81,29.78,10.0,South,12.7,21.9,N/A,,Clear,180,2014-03-21 04:54:00